Station AKXA2 - Akutan, AK Image indicating link to RSS feed of recent meteorological observations for station AKXA2


Conditions at AKXA2 as of
(11:14 am AKDT)
1914 GMT on 05/24/2024:
     

Click on the graph icon in the table below to see a time series plot of the last five days of that observation.

5-day plot - Wind Direction Wind Direction (WDIR): W ( 270 deg true )
5-day plot - Wind Speed Wind Speed (WSPD): 20 kts
5-day plot - Wind Gust Wind Gust (GST): 34 kts
5-day plot - Atmospheric Pressure Atmospheric Pressure (PRES):29.80 in
5-day plot - Air Temperature Air Temperature (ATMP): 41.9 °F
5-day plot - Dew Point Dew Point (DEWP): 36.0 °F
5-day plot - Wind Chill Wind Chill (CHILL): 32.4 °F
5-day plot - Wind Speed at 10 Meters Wind Speed at 10 meters (WSPD10M): 19 kts
5-day plot - Wind Speed at 20 Meters Wind Speed at 20 meters (WSPD20M): 21 kts
5-day plot -  Wind Speed, Wind Gust and Atmospheric Pressure Combined plot of Wind Speed, Gust, and Air Pressure
Previous observations
TIME
(AKDT)
5-day plot - Wind Direction
WDIR
 
5-day plot - Wind Speed
WSPD
kts
5-day plot - Wind Gust
GST
kts
5-day plot - Wave Height
WVHT
ft
5-day plot - Dominant Wave Period
DPD
sec
5-day plot - Average Wave Period
APD
sec
5-day plot - Mean Wave Direction
MWD
 
5-day plot - Atmospheric Pressure
PRES
in
5-day plot - Pressure Tendency
PTDY
in
5-day plot - Air Temperature
ATMP
°F
5-day plot - Water Temperature
WTMP
°F
5-day plot - Dew Point
DEWP
°F
5-day plot - Salinity
SAL
psu
5-day plot - Visibility
VIS
nmi
5-day plot - Tide (above MLLW)
TIDE
ft
2024-05-24 11:04 am W 17 25----29.80- 41.7- 36.0---
2024-05-24 10:54 am W 19 27----29.80- 41.9- 35.8---
2024-05-24 10:44 am W 24 38----29.79- 42.3- 35.4---
2024-05-24 10:34 am W 20 28----29.80- 42.6- 35.6---
2024-05-24 10:24 am W 18 26----29.80- 42.3- 35.2---
2024-05-24 10:14 am W 19 29----29.80- 41.9- 35.4---
2024-05-24 10:04 am W 17 25----29.80- 40.8- 36.1---
2024-05-24 09:54 am W 19 27----29.80- 40.8- 36.1---
2024-05-24 09:44 am W 18 23----29.80- 41.4- 35.8---
2024-05-24 09:34 am W 19 29----29.80- 41.5- 35.4---
2024-05-24 09:24 am W 19 25----29.80- 40.6- 36.1---
2024-05-24 09:14 am W 19 29----29.80- 40.8- 36.1---
2024-05-24 09:04 am W 18 23----29.80- 41.0- 36.3---
2024-05-24 08:54 am W 16 22----29.80- 40.8- 36.5---
2024-05-24 08:44 am W 16 19----29.80- 41.0- 36.7---
2024-05-24 08:34 am W 15 19----29.80- 41.0- 36.5---
2024-05-24 08:24 am W 15 21----29.79- 41.4- 36.3---
2024-05-24 08:14 am W 14 18----29.80- 41.2- 36.3---
2024-05-24 08:04 am W 15 19----29.80- 41.2- 36.1---
2024-05-24 07:54 am W 13 19----29.80- 41.2- 36.5---
2024-05-24 07:44 am W 11 17----29.80- 41.0- 36.7---
2024-05-24 07:34 am W 12 17----29.80- 40.6- 36.9---
2024-05-24 07:24 am W 14 20----29.80- 40.8- 36.9---
2024-05-24 07:14 am W 12 18----29.80- 41.2- 36.9---
2024-05-24 07:04 am W 11 16----29.80- 41.2- 36.9---
2024-05-24 06:54 am W 13 21----29.80- 41.2- 36.9---
2024-05-24 06:44 am W 15 19----29.79- 41.5- 36.7---
2024-05-24 06:34 am W 12 17----29.80- 41.9- 36.5---
2024-05-24 06:24 am W 10 17----29.80- 42.1- 36.5---
2024-05-24 06:14 amWSW 6 13----29.80- 42.1- 36.9---
2024-05-24 06:04 am W 12 16----29.80- 42.1- 36.1---
2024-05-24 05:54 am W 15 19----29.80- 42.1- 36.1---
2024-05-24 05:44 am W 14 17----29.80- 41.9- 36.5---
2024-05-24 05:34 am W 13 19----29.80- 41.9- 36.5---
2024-05-24 05:24 am W 10 16----29.81- 41.7- 36.9---
2024-05-24 05:14 amWSW 11 17----29.81- 41.9- 36.9---
2024-05-24 05:04 am W 12 21----29.81- 41.9- 36.9---
2024-05-24 04:54 amWSW 6 16----29.81- 42.1- 37.6---
2024-05-24 04:34 am W 10 17----29.81- 42.1- 37.4---
2024-05-24 04:24 am W 10 15----29.81- 42.3- 37.6---
2024-05-24 04:14 amWSW 4 10----29.81- 42.6- 38.5---
2024-05-24 04:04 amWSW 3 7----29.81- 42.1- 38.5---
2024-05-24 03:54 amWSW 4 7----29.81- 42.1- 38.7---
2024-05-24 03:44 am W 3 8----29.81- 41.5- 38.8---
2024-05-24 03:34 amWNW 2 4----29.81- 41.4- 38.7---
2024-05-24 03:24 amWNW 2 4----29.81- 41.4- 38.7---
2024-05-24 03:14 amNNW 4 5----29.82- 41.4- 38.5---
2024-05-24 03:04 amWNW 3 5----29.82- 41.5- 38.8---
2024-05-24 02:54 am W 4 7----29.82- 41.5- 38.8---
2024-05-24 02:44 am W 6 8----29.82- 41.5- 38.8---
2024-05-24 02:34 am W 6 9----29.82- 41.7- 39.2---
2024-05-24 02:24 am W 5 8----29.82- 41.9- 39.4---
2024-05-24 02:14 am W 3 6----29.82- 41.9- 40.3---
2024-05-24 02:04 amWNW 3 5----29.82- 41.7- 40.8---
2024-05-24 01:54 amNNW 1 3----29.82- 42.1- 41.4---
2024-05-24 01:44 am N 1 2----29.81- 42.1- 41.5---
2024-05-24 01:34 am- 0 2----29.81- 41.9- 41.4---
2024-05-24 01:24 am SE 2 3----29.81- 41.9- 41.4---
2024-05-24 01:14 am SW 1 3----29.81- 42.1- 41.4---
2024-05-24 01:04 amWSW 2 5----29.81- 42.3- 41.5---
2024-05-24 12:54 am N 2 3----29.81- 42.1- 41.5---
2024-05-24 12:44 am NE 1 3----29.82- 41.9- 41.4---
2024-05-24 12:34 am SE 3 4----29.82- 41.5- 41.0---
2024-05-24 12:24 am S 2 4----29.82- 41.9- 41.2---
2024-05-24 12:15 am W 1 2----29.82- 42.3- 41.5---
2024-05-24 12:04 amSSE 2 3----29.81- 41.9- 41.2---
2024-05-23 11:54 pmESE 3 4----29.81- 42.1- 41.4---
2024-05-23 11:44 pmESE 3 4----29.81- 42.1- 41.4---
2024-05-23 11:34 pmESE 3 4----29.81- 41.9- 41.2---
2024-05-23 11:24 pm E 4 5----29.80- 41.9- 41.0---
2024-05-23 11:14 pm E 5 6----29.80- 42.1- 40.8---
2024-05-23 11:04 pm E 2 4----29.80- 42.4- 40.8---
2024-05-23 10:54 pmESE 3 5----29.80- 42.3- 40.6---
2024-05-23 10:44 pm SE 1 4----29.80- 42.6- 41.0---
2024-05-23 10:34 pm E 4 6----29.80- 42.1- 40.5---
2024-05-23 10:24 pm E 4 6----29.80- 42.3- 40.6---
2024-05-23 10:14 pmENE 4 6----29.80- 42.4- 40.8---
2024-05-23 10:04 pm E 4 6----29.80- 42.3- 40.8---
2024-05-23 09:54 pmENE 4 6----29.80- 42.3- 40.8---
2024-05-23 09:44 pm E 4 5----29.80- 42.3- 40.6---
2024-05-23 09:34 pm E 4 7----29.80- 42.3- 40.6---
2024-05-23 09:24 pmESE 6 8----29.80- 42.3- 40.6---
2024-05-23 09:14 pm SE 8 10----29.79- 41.9- 40.6---
2024-05-23 09:04 pmSSE 7 11----29.79- 42.3- 40.6---
2024-05-23 08:54 pmSSE 4 7----29.79- 43.3- 40.8---
2024-05-23 08:44 pmSSE 3 4----29.79- 43.5- 40.8---
2024-05-23 08:34 pmESE 3 5----29.79- 43.7- 40.8---
2024-05-23 08:29 pmNNE 4 8----29.79- 43.5- 40.8---
2024-05-23 08:24 pmNNE 4 8----29.79- 43.5- 40.8---
2024-05-23 08:04 pm N 6 13----29.79- 43.5- 40.5---
2024-05-23 07:54 pm N 8 11----29.79- 43.7- 40.5---
2024-05-23 07:44 pm N 7 10----29.79- 43.9- 40.6---
2024-05-23 07:34 pm N 3 8----29.79- 44.6- 41.2---
2024-05-23 07:24 pm N 5 9----29.79- 44.8- 41.2---
2024-05-23 07:14 pm N 3 7----29.79- 45.1- 41.5---
2024-05-23 07:04 pm N 1 5----29.79- 45.7- 41.7---
2024-05-23 06:54 pm- 0 2----29.79- 45.1- 41.5---
2024-05-23 06:44 pmESE 2 6----29.80- 44.4- 41.2---
2024-05-23 06:34 pm S 5 8----29.80- 43.9- 41.0---
2024-05-23 06:24 pm S 7 12----29.79- 43.7- 40.8---
2024-05-23 06:14 pm SE 2 4----29.80- 44.1- 40.8---
2024-05-23 06:04 pm SE 3 7----29.80- 43.9- 40.6---
2024-05-23 05:54 pm E 3 5----29.80- 43.9- 40.6---
2024-05-23 05:44 pm E 3 5----29.80- 43.7- 40.3---
2024-05-23 05:34 pmESE 3 5----29.80- 43.5- 40.5---
2024-05-23 05:24 pmSSE 6 10----29.81- 43.3- 40.3---
2024-05-23 05:14 pmESE 5 7----29.81- 43.3- 40.3---
2024-05-23 05:04 pm E 5 9----29.81- 43.5- 40.5---
2024-05-23 04:54 pmESE 6 9----29.81- 43.5- 40.6---
2024-05-23 04:44 pmESE 5 8----29.81- 43.3- 40.6---
2024-05-23 04:34 pmESE 3 6----29.82- 43.2- 40.6---
2024-05-23 04:24 pmESE 6 9----29.80- 42.8- 40.6---
2024-05-23 04:14 pmSSE 8 15----29.81- 43.2- 40.6---
2024-05-23 03:54 pmSSW 13 23----29.80- 43.7- 40.6---
2024-05-23 03:44 pmSSW 12 22----29.80- 44.2- 40.8---
2024-05-23 03:34 pmSSW 12 22----29.80- 44.8- 41.2---
2024-05-23 03:24 pmSSW 14 24----29.80- 44.2- 41.4---
2024-05-23 03:14 pmSSW 16 29----29.80- 44.1- 41.0---
2024-05-23 03:04 pmSSW 18 30----29.80- 44.4- 41.0---
2024-05-23 02:54 pmSSW 17 27----29.79- 45.3- 41.2---
2024-05-23 02:44 pmSSW 12 23----29.80- 46.2- 41.9---
2024-05-23 02:34 pmSSW 11 23----29.80- 45.3- 41.7---
2024-05-23 02:24 pm SW 9 19----29.80- 45.7- 41.7---
2024-05-23 02:14 pm SW 11 24----29.80- 45.3- 41.5---
2024-05-23 02:04 pm SW 11 22----29.80- 45.7- 41.5---
2024-05-23 01:54 pm SW 11 25----29.80- 45.7- 41.7---
2024-05-23 01:44 pm SW 13 26----29.80- 45.7- 41.5---
2024-05-23 01:34 pm SW 10 25----29.81- 46.0- 42.1---
2024-05-23 01:24 pm SW 11 23----29.81- 46.0- 42.4---
2024-05-23 01:14 pm SW 12 26----29.82- 45.7- 42.4---
2024-05-23 01:04 pm SW 12 24----29.81- 45.5- 42.4---
2024-05-23 12:54 pm SW 13 30----29.80- 45.5- 42.4---
2024-05-23 12:44 pm SW 12 30----29.80- 45.9- 42.8---
2024-05-23 12:34 pm SW 13 27----29.80- 45.5- 43.0---
2024-05-23 12:24 pm SW 13 28----29.80- 45.9- 43.3---
2024-05-23 12:14 pm SW 13 26----29.81- 45.7- 43.5---
2024-05-23 12:04 pm SW 11 26----29.81- 45.7- 43.5---
2024-05-23 11:54 am SW 13 28----29.80- 45.3- 43.7---
2024-05-23 11:45 am SW 13 26----29.80- 45.3- 43.5---
2024-05-23 11:34 am SW 13 31----29.80- 46.0- 43.7---
2024-05-23 11:24 am SW 12 28----29.81- 46.6- 44.2---
2024-05-23 11:14 am SW 12 26----29.81- 46.2- 45.0---
2024-05-23 11:04 am SW 12 27----29.81- 44.4- 43.9---
2024-05-23 10:54 am SW 13 30----29.82- 44.1- 43.9---